Regional Weather Roundup
Issued by NWS

Home | Current Version | Previous Version | Graphics & Text | Print | Product List | Glossary On
Versions: 1 2 3 4 5 6 7 8 9 10 11 12 13 14 15 16 17 18 19 20 21 22 23 24 25 26 27 28 29 30 31 32 33 34 35 36 37 38 39 40 41 42 43 44 45 46 47 48 49 50
000
ASUS43 KTOP 301908
RWRKS

WEATHER ROUNDUP FOR KANSAS
NATIONAL WEATHER SERVICE GOODLAND KS
100 PM CST FRI JAN 30 2015

NOTE:  "FAIR" INDICATES FEW OR NO CLOUDS BELOW 12,000 FEET WITH NO
SIGNIFICANT WEATHER AND/OR OBSTRUCTIONS TO VISIBILITY.

KSZ001>006-013>018-027>032-041>047-302000-
NORTHWEST KANSAS

CITY           SKY/WX    TMP DP  RH WIND       PRES   REMARKS
GOODLAND       CLOUDY    48  33  56 SW25G35   30.22F
HAYS           CLOUDY    43  23  45 S17       30.37F
HILL CITY      CLOUDY    44  25  47 S13       30.34F
RUSSELL        CLOUDY    43  27  53 S18       30.38F
$$

KSZ061>065-074>080-084>089-302000-
SOUTHWEST KANSAS

CITY           SKY/WX    TMP DP  RH WIND       PRES   REMARKS
DODGE CITY     CLOUDY    42  25  50 S16       30.37F
ELKHART          N/A    N/A N/A N/A MISG        N/A
GARDEN CITY    CLOUDY    42  25  50 S17       30.33F
LIBERAL        CLOUDY    43  27  52 S14       30.37F
PRATT          CLOUDY    41  25  52 S15       30.43F
$$

KSZ066>073-081>083-090>101-302000-
SOUTHEAST KANSAS

CITY           SKY/WX    TMP DP  RH WIND       PRES   REMARKS
CHANUTE        SUNNY     39  25  57 CALM      30.49F
COFFEYVILLE    MOSUNNY   42  25  50 N3        30.50F
HUTCHINSON     CLOUDY    41  27  57 S12       30.45F
MEDICINE LODGE   N/A     42  26  53 S10       30.44F
NEWTON         PTSUNNY   39  25  56 S6        30.46F
PARSONS        MOSUNNY   40  26  57 VRB3      30.51F
WICHITA INTL   CLOUDY    41  25  53 SE9       30.45F
WICHITA JABRA  CLOUDY    39  25  57 S5        30.45F
WICHITA MCCONL CLOUDY    41  26  55 SE3       30.46F
WINFIELD       CLOUDY    43  25  49 CALM      30.47F
$$

KSZ007>012-019>026-033>040-048>060-102>105-302000-
NORTHEAST KANSAS

CITY           SKY/WX    TMP DP  RH WIND       PRES   REMARKS
CONCORDIA      CLOUDY    41  27  57 S10       30.42F
EMPORIA        PTSUNNY   39  24  55 S3        30.47F
LAWRENCE       MOSUNNY   36  22  56 CALM      30.51F
MANHATTAN      PTSUNNY   40  27  59 S5        30.47F
MARYSVILLE     PTSUNNY   37  27  65 S8        30.44F
OLATHE IND     MOSUNNY   35  22  58 VRB3      30.50F
OLATHE EXE     MOSUNNY   36  20  52 SW5       30.49F
SALINA         CLOUDY    44  27  51 S13       30.44F
TOPEKA BILLARD MOSUNNY   36  23  59 SW6       30.51F
TOPEKA FORBES  MOSUNNY   38  23  55 S6        30.49F
$$



USA.gov is the U.S. government's official web portal to all federal, state and local government web resources and services.